Regional Weather Roundup
Issued by NWS Mt. Holly, NJ

Home | Current Version | Previous Version | Text Only | Print | Product List | Glossary On
Versions: 1 2 3 4 5 6 7 8 9 10 11 12 13 14 15 16 17 18 19 20 21 22 23 24 25 26 27 28 29 30 31 32 33 34 35 36 37 38 39 40 41 42 43 44 45 46 47 48 49 50
000
ASUS41 KPHI 211110
RWRPHI

REGIONAL WEATHER ROUNDUP
NATIONAL WEATHER SERVICE MOUNT HOLLY NJ
700 AM EDT TUE OCT 21 2014

NOTE:  "FAIR" INDICATES FEW OR NO CLOUDS BELOW 12,000 FEET WITH NO
SIGNIFICANT WEATHER AND/OR OBSTRUCTIONS TO VISIBILITY.

 * = STATION DOES NOT REPORT PRECIPITATION (E.G. RAIN, SNOW, ETC.)
        OR FOG.

NJZ015>026-211200-
SOUTHERN NEW JERSEY

CITY           SKY/WX    TMP DP  RH WIND       PRES   REMARKS
POMONA         MOCLDY    47  45  93 CALM      29.88F
RIO GRANDE*    MOCLDY    54  48  82 SE3       29.88S
MILLVILLE      PTCLDY    49  48  97 CALM      29.87S FOG
WRIGHTSTOWN    PTCLDY    46  45  97 N2        29.86S
MOUNT HOLLY    PTCLDY    48  46  93 CALM      29.86F
TRENTON        MOCLDY    49  45  86 CALM      29.88S

$$
NJZ001>014-211200-
NORTHERN NEW JERSEY

CITY           SKY/WX    TMP DP  RH WIND       PRES   REMARKS
SUSSEX         CLOUDY    49  46  90 CALM      29.89S
ANDOVER*         N/A     49  47  93 CALM      29.88S
MORRISTOWN     CLOUDY    48  45  87 CALM      29.89F
NEWARK         CLOUDY    53  44  71 NE3       29.89F
TETERBORO      CLOUDY    52  45  77 CALM      29.89S
CALDWELL       CLOUDY    48  43  82 E5        29.89F
SOMERVILLE     MOCLDY    47  45  93 CALM      29.87S
ALLAIRE*       MOCLDY    54  43  66 S5        29.88F
TOMS RIVER*    MOCLDY    48  45  87 CALM      29.89S

$$
PAZ043-044-047-054-055-060>062-066>071-211200-
EASTERN PENNSYLVANIA

CITY           SKY/WX    TMP DP  RH WIND       PRES   REMARKS
PHILADELPHIA   MOCLDY    54  49  83 CALM      29.87S
NORTH PHILA    MOCLDY    51  44  77 NE6       29.88F
BLUE BELL      MOCLDY    52  50  93 CALM      29.87R
DOYLESTOWN     CLOUDY    48  47  96 CALM      29.88R
QUAKERTOWN*    CLOUDY    48  48 100 CALM      29.87S
POTTSTOWN      CLOUDY    50  48  93 CALM      29.88S
LANCASTER      PTCLDY    49  48  97 CALM      29.86S FOG
COATESVILLE    PTCLDY    48  46  93 CALM      29.87S
READING        MOCLDY    51  49  92 CALM      29.86R
ALLENTOWN      CLOUDY    50  48  93 CALM      29.87S
MOUNT POCONO   RAIN      48  46  93 CALM      29.86R FOG
HAZLETON       CLOUDY    50  46  87 SE3       29.87S
WILKES BARRE   LGT RAIN  52  46  80 E3        29.84F

$$
DEZALL-MDZ008-012-015-019-020-211200-
DELAWARE AND EASTERN MARYLAND

CITY           SKY/WX    TMP DP  RH WIND       PRES   REMARKS
WILMINGTON     MOCLDY    51  49  92 CALM      29.87F
DOVER          CLOUDY    53  51  92 S3        29.84S
GEORGETOWN     MOCLDY    56  52  86 S5        29.88S
EASTON         CLEAR     54  54 100 CALM      29.90S
PATUXENT       MOCLDY    58  48  69 SW7       29.86S
OCEAN CITY     MOCLDY    54  52  93 CALM      29.88S
WALLOPS ISLAND MOCLDY    61  57  87 SW8       29.89R
CAMBRIDGE      PTCLDY    54  50  87 CALM      29.87R
SALISBURY      PTCLDY    54  50  86 CALM      29.87F

$$
PAZ001-021-NYZ056-072-MDZ011-DCZ001-211200-
OTHER NEARBY LOCATIONS

CITY           SKY/WX    TMP DP  RH WIND       PRES   REMARKS
HARRISBURG     MOCLDY    49  48  97 CALM      29.85S FOG
STATE COLLEGE  CLOUDY    46  45  93 CALM      29.84R
WILLIAMSPORT   LGT RAIN  48  45  89 CALM      29.83S
BINGHAMTON     CLOUDY    47  43  86 S3        29.82F
NEW YORK CITY  CLOUDY    55  45  68 CALM      29.92S
BALTIMORE      PTCLDY    47  46  97 CALM      29.86S
WASHINGTON DC  PTCLDY    55  48  77 CALM      29.87S

$$


USA.gov is the U.S. government's official web portal to all federal, state and local government web resources and services.